Weather History for KSKA - February, 2014

Change the Weather History Date:

Thursday, February 6, 2014

  Actual Average Record
Temperature  
Mean Temperature 4 °F -  
Max Temperature 12 °F 35 °F 53 °F (2015)
Min Temperature -5 °F 23 °F -5 °F (2014)
Degree Days  
Heating Degree Days 62    
Moisture  
Dew Point -2 °F    
Average Humidity 65    
Maximum Humidity 83    
Minimum Humidity 52    
Precipitation  
Precipitation 0.00 in - - ()
Sea Level Pressure  
Sea Level Pressure 30.03 in    
Wind  
Wind Speed 10 mph (NE)    
Max Wind Speed 15 mph    
Max Gust Speed -    
Visibility 8 miles    
Events Snow    
Averages and records for this station are not official NWS values.
T = Trace of Precipitation, MM = Missing Value Source: NWS Daily Summary

Daily Weather History Graph

Daily Weather History Graph

Search for Another Location

Airport or City:

Trip Planner

Search our weather history database for the weather conditions in past years. The results will help you decide how hot, cold, wet, or windy it might be!

Date:

Astronomy

Feb. 06, 2014 Rise Set
Actual Time 7:10 AM PST 4:59 PM PST
Civil Twilight 6:37 AM PST 5:32 PM PST
Nautical Twilight 6:01 AM PST 6:09 PM PST
Astronomical Twilight 5:25 AM PST 6:44 PM PST
Moon 10:33 AM PST (2/6) 12:31 AM PST (2/6)
Length of Visible Light 10h 54m
Length of Day
9h 49m
Waxing Crescent, 50% of the Moon is Illuminated
Feb 6
Waxing Crescent
Feb 14
Full
Feb 22
Last Quarter
Mar 1
New
Mar 8
First Quarter

Hourly Weather History & Observations

Time (PST) Temp. Windchill Dew Point Humidity Pressure Visibility Wind Dir Wind Speed Gust Speed Precip Events Conditions
12:58 AM -2.2 °F -18.9 °F -11.2 °F 66% 30.47 in 10.0 mi NNE 10.4 mph - N/A   Clear
1:58 AM -1.8 °F -17.5 °F -11.4 °F 64% 30.45 in 10.0 mi NNE 9.2 mph - N/A   Clear
2:58 AM -1.8 °F -17.5 °F -11.9 °F 62% 30.43 in 10.0 mi NNE 9.2 mph - N/A   Clear
3:58 AM -3.8 °F -17.5 °F -13.2 °F 64% 30.42 in 10.0 mi NE 6.9 mph - N/A   Clear
4:58 AM -5.8 °F -16.7 °F -13.5 °F 69% 30.41 in 10.0 mi NE 4.6 mph - N/A   Clear
5:58 AM -3.5 °F -15.7 °F -11.9 °F 67% 30.39 in 10.0 mi NE 5.8 mph - N/A   Clear
6:58 AM -4.2 °F -19.3 °F -13.2 °F 65% 30.38 in 10.0 mi NE 8.1 mph - N/A   Clear
7:58 AM -3.5 °F -18.4 °F -12.5 °F 65% 30.37 in 10.0 mi NE 8.1 mph - N/A   Clear
8:58 AM 0.5 °F -14.6 °F -9.9 °F 62% 30.35 in 10.0 mi NE 9.2 mph - N/A   Partly Cloudy
9:58 AM 4.3 °F -7.8 °F -8.3 °F 56% 30.34 in 10.0 mi NE 6.9 mph - N/A   Clear
10:58 AM 6.8 °F -8.6 °F -7.4 °F 52% 30.31 in 10.0 mi NE 11.5 mph - N/A   Clear
11:58 AM 9.3 °F -7.4 °F -4.0 °F 55% 30.28 in 10.0 mi NE 15.0 mph - N/A   Clear
12:58 PM 10.9 °F -4.7 °F -3.5 °F 52% 30.21 in 10.0 mi ENE 13.8 mph - N/A   Partly Cloudy
1:58 PM 12.0 °F -3.4 °F -2.6 °F 52% 30.17 in 10.0 mi ENE 13.8 mph - N/A   Clear
2:58 PM 12.9 °F -2.8 °F -1.3 °F 53% 30.13 in 10.0 mi NE 15.0 mph - N/A   Clear
3:58 PM 12.9 °F -0.9 °F -1.7 °F 52% 30.10 in 10.0 mi NE 11.5 mph - N/A   Clear
4:58 PM 11.3 °F -2.2 °F -2.6 °F 54% 30.06 in 10.0 mi NNE 10.4 mph - N/A   Mostly Cloudy
5:58 PM 11.3 °F -2.2 °F -1.7 °F 56% 30.02 in 10.0 mi NNE 10.4 mph - N/A   Overcast
6:58 PM 11.7 °F -3.8 °F -0.9 °F 57% 29.99 in 10.0 mi NE 13.8 mph - N/A   Overcast
7:58 PM 9.9 °F -5.5 °F -1.5 °F 60% 29.95 in 10.0 mi NE 12.7 mph - N/A   Mostly Cloudy
8:58 PM 9.9 °F -2.2 °F -1.1 °F 61% 29.93 in 10.0 mi NNE 8.1 mph - N/A   Overcast
9:48 PM 10.4 °F -3.3 °F -0.4 °F 62% 29.74 in 10.0 mi NNE 10.4 mph - N/A   Overcast
9:58 PM 10.6 °F -0.2 °F -0.6 °F 61% 29.91 in 10.0 mi NNE 6.9 mph - N/A   Overcast
10:11 PM 10.4 °F -0.4 °F -0.4 °F 62% 29.75 in 10.0 mi NE 6.9 mph - N/A Snow Light Snow
10:16 PM 10.4 °F -1.5 °F -0.4 °F 62% 29.75 in 10.0 mi NE 8.1 mph - N/A Snow Light Snow
10:31 PM 10.4 °F -3.3 °F 1.4 °F 67% 29.74 in 3.0 mi NE 10.4 mph - N/A Snow Light Snow
10:33 PM 10.4 °F -3.3 °F 1.4 °F 67% 29.74 in 2.5 mi NE 10.4 mph - N/A Snow Light Snow
10:35 PM 10.4 °F -3.3 °F 3.2 °F 73% 29.74 in 2.0 mi NE 10.4 mph - N/A Snow Light Snow
10:37 PM 10.4 °F -2.4 °F 3.2 °F 73% 29.74 in 1.8 mi NE 9.2 mph - N/A Snow Light Snow
10:39 PM 10.4 °F -3.3 °F 3.2 °F 73% 29.74 in 1.5 mi NE 10.4 mph - N/A Snow Light Snow
10:43 PM 10.4 °F -3.3 °F 5.0 °F 79% 29.73 in 1.8 mi NE 10.4 mph - N/A Snow Light Snow
10:45 PM 10.4 °F -2.4 °F 5.0 °F 79% 29.73 in 2.0 mi NE 9.2 mph - N/A Snow Light Snow
10:47 PM 10.4 °F -2.4 °F 5.0 °F 79% 29.73 in 2.5 mi NE 9.2 mph - N/A Snow Light Snow
10:51 PM 10.4 °F -2.4 °F 5.0 °F 79% 29.73 in 3.0 mi NE 9.2 mph - N/A Snow Light Snow
10:56 PM 10.4 °F -3.3 °F 5.0 °F 79% 29.73 in 4.0 mi NE 10.4 mph - N/A Snow Light Snow
10:58 PM 10.4 °F -3.3 °F 5.0 °F 79% 29.88 in 4.0 mi NE 10.4 mph - 0.00 in Snow Light Snow
11:08 PM 10.4 °F -2.4 °F 5.0 °F 79% 29.72 in 5.0 mi NE 9.2 mph - N/A Snow Light Snow
11:58 PM 9.7 °F -5.7 °F 5.4 °F 83% 29.84 in 6.0 mi NE 12.7 mph - 0.00 in Snow Light Snow